TimeFrame on Redefined Productions
Outwar Torax TimeFrame

Torax TimeFrame

98 Gods Updated: 2019-12-08 14:18:47
NameTime LeftWindow Opens
Kretok, Descendant of Nature1d 21:082019-12-06 21:09:00
Slashbrood, Devourer of the Blackness1d 12:302019-12-07 05:47:00
Threk, King of Lords1d 00:442019-12-07 17:33:00
Gregov, Knight of the Woods0d 18:392019-12-07 23:38:00
Smoot the Yeti0d 16:522019-12-08 01:25:00
Lady Ariella0d 15:562019-12-08 02:21:00
Numerocure, The Black Messenger of Evil0d 15:352019-12-08 02:42:00
Hackerphage, Protector of the Gateway0d 12:352019-12-08 05:42:00
Keeper of Nature0d 11:352019-12-08 06:42:00
Tsort0d 10:472019-12-08 07:30:00
Ebliss, Fallen Angel of Despair0d 06:182019-12-08 11:59:00
Xynak, the Arcane Master0d 05:212019-12-08 12:56:00
Terrance, Rebel of Rallis0d 05:172019-12-08 13:00:00
Brutalitar, Lord of the Underworld0d 05:132019-12-08 13:04:00
Skarthul the Avenged0d 05:072019-12-08 13:10:00
King Ashnar, Lord of the Unliving0d 04:592019-12-08 13:18:00
Murderface0d 04:532019-12-08 13:24:00
Crantos, Defender of Ultimation0d 04:202019-12-08 13:57:00
Freezebreed, The Frozen Manipulator0d 04:112019-12-08 14:06:00
Lord Sibannac0d 04:072019-12-08 14:10:00
Baron Mu, Dark Rider of the Undead0d 03:392019-12-08 14:38:00
Karvaz, Lord of Alsayic0d 02:202019-12-08 15:57:00
Dreg nor, Keeper of the Infernal Essence0d 00:142019-12-08 18:03:00
Anguish0d 00:282019-12-08 18:46:00
Nayark the Mummified Sorcerer0d 02:382019-12-08 20:56:00
Mistress of the Sword0d 02:412019-12-08 20:59:00
Hyrak, Bringer of Nightmares0d 02:532019-12-08 21:11:00
Amalgamated Apparition0d 02:532019-12-08 21:11:00
Ormsul the Putrid0d 02:542019-12-08 21:12:00
Ancient Magus Tarkin0d 03:192019-12-08 21:37:00
Grivvek, Protector of the Brood0d 03:472019-12-08 22:05:00
Lord Narada0d 04:062019-12-08 22:24:00
Volgan the Living Ironbark0d 04:072019-12-08 22:25:00
Dlanod, the Crazed Chancellor0d 04:412019-12-08 22:59:00
Ag Nabak the Abomination0d 04:572019-12-08 23:15:00
Jorun the Blazing Swordsman0d 08:072019-12-09 02:25:00
Lord Varan0d 09:402019-12-09 03:58:00
Nar Zhul, Slayer of All0d 10:472019-12-09 05:05:00
Samatha Dark-Soul0d 10:542019-12-09 05:12:00
Sarcrina the Astral Priestess0d 12:112019-12-09 06:29:00
Zertan, The Collector0d 12:332019-12-09 06:51:00
Dexor, Victor of Veldara0d 12:422019-12-09 07:00:00
Synge, The Red Dragon0d 13:492019-12-09 08:07:00
Vitkros, Hydra of the Deep0d 15:282019-12-09 09:46:00
Felroc, Overseer of Hellfire0d 15:392019-12-09 09:57:00
Zikkir the Dark Archer0d 15:452019-12-09 10:03:00
Kro Shuk, Doomslayer0d 16:062019-12-09 10:24:00
Garland, The Lord Keeper0d 16:322019-12-09 10:50:00
Wanhiroeaz the Devourer0d 16:352019-12-09 10:53:00
Straya, the Underworld Ruler0d 18:132019-12-09 12:31:00
Balerion, Dragon of Dread0d 18:362019-12-09 12:54:00
Quiver, The Renegade0d 19:552019-12-09 14:13:00
Lord Xordam0d 20:402019-12-09 14:58:00
Traxodon the Plaguebringer0d 21:052019-12-09 15:23:00
Tylos, The Lord Master0d 21:132019-12-09 15:31:00
Bolkor, the Holy Master0d 21:152019-12-09 15:33:00
Pinosis0d 21:162019-12-09 15:34:00
Lord Suka0d 22:402019-12-09 16:58:00
Noxious Slug1d 01:422019-12-09 20:00:00
Beast of Cards1d 02:492019-12-09 21:07:00
Rotborn, Eater of the Dead1d 04:152019-12-09 22:33:00
Nessam1d 04:582019-12-09 23:16:00
Ganja the Stone Golem1d 05:452019-12-10 00:03:00
Gnorb1d 05:572019-12-10 00:15:00
Bloodchill the Grizzly1d 06:542019-12-10 01:12:00
Lady Chaos, Queen of the Abyss1d 07:482019-12-10 02:06:00
Rancid, Lord of Thugs1d 07:552019-12-10 02:13:00
Melt Bane, The Forbidden Demon Dragon1d 09:232019-12-10 03:41:00
Sylvanna TorLai1d 09:372019-12-10 03:55:00
Murfax, Beast of the Caves1d 09:472019-12-10 04:05:00
Shadow1d 10:172019-12-10 04:35:00
Crane1d 10:182019-12-10 04:36:00
Nafir, God of Desolation1d 10:222019-12-10 04:40:00
Jazzmin, Maiden of Vitality1d 16:302019-12-10 10:48:00
Raiyar, the Shadow Master1d 16:302019-12-10 10:48:00
Esquin, the Kinetic Master1d 18:172019-12-10 12:35:00
Q-SEC Commander1d 20:352019-12-10 14:53:00
Akkel the Enflamed Warrior2d 00:302019-12-10 18:48:00
The Emerald Assassin2d 01:242019-12-10 19:42:00
Emperor Neudeus, Controller of the Universe2d 01:342019-12-10 19:52:00
Sigil, Lich of Woe2d 02:482019-12-10 21:06:00
Detox2d 04:362019-12-10 22:54:00
Crolvak, the Fire Master2d 06:212019-12-11 00:39:00
Gorganus of the Wood2d 09:362019-12-11 03:54:00
Viserion, the Necrodragon2d 11:542019-12-11 06:12:00
Skybrine The Inescapable2d 12:572019-12-11 07:15:00
Archdevil Yirkon2d 14:272019-12-11 08:45:00
Windstrike The Vile2d 23:112019-12-11 17:29:00
Howldroid, Tormentor of the Pit3d 06:082019-12-12 00:26:00
Great Lord Ganeshan3d 07:452019-12-12 02:03:00
Animated Captain3d 18:222019-12-12 12:40:00
Old World Drake3d 18:252019-12-12 12:43:00
Anvilfist3d 22:262019-12-12 16:44:00
Lacuste of the Swarm4d 01:372019-12-12 19:55:00
Varsanor, Master of Darkness4d 09:312019-12-13 03:49:00
Jade Dragonite50d 22:182019-10-18 19:59:00
Shaik, Servant of Arkron9d 06:582019-11-29 11:19:00
Rook, Hand of Arkron7d 05:522019-12-01 12:25:00